Time,TemperatureF,DewpointF,PressureIn,WindDirection,WindDirectionDegrees,WindSpeedMPH,WindSpeedGustMPH,Humidity,HourlyPrecipIn,Conditions,Clouds,dailyrainin,SolarRadiationWatts/m^2,SoftwareType,DateUTC
2013-06-15 00:00:00,58.4,57.3,29.86,WSW,240,1.0,2.0,96,0.00,,BKN250,0.42,0.00,VWS V14.01,2013-06-15 04:00:00,
2013-06-15 00:01:00,58.4,57.3,29.86,WSW,240,1.0,1.0,96,0.00,,FEW070,0.00,0.00,VWS V14.01,2013-06-15 04:01:00,
2013-06-15 00:05:00,58.4,57.3,29.86,WSW,240,0.0,3.0,96,0.00,,BKN250,0.00,0.00,VWS V14.01,2013-06-15 04:05:00,
2013-06-15 00:06:00,58.4,57.3,29.86,WSW,240,0.0,0.0,96,0.00,,FEW070,0.00,0.00,VWS V14.01,2013-06-15 04:06:00,
2013-06-15 00:10:00,58.5,57.4,29.86,WSW,240,0.0,2.0,96,0.00,,BKN250,0.00,0.00,VWS V14.01,2013-06-15 04:10:00,
2013-06-15 00:11:00,58.5,57.4,29.86,WSW,240,0.0,0.0,96,0.00,,FEW070,0.00,0.00,VWS V14.01,2013-06-15 04:11:00,
2013-06-15 00:15:00,58.5,57.4,29.86,WSW,240,0.0,0.0,96,0.00,,BKN250,0.00,0.00,VWS V14.01,2013-06-15 04:15:00,
2013-06-15 00:16:00,58.5,57.4,29.86,WSW,240,0.0,0.0,96,0.00,,FEW070,0.00,0.00,VWS V14.01,2013-06-15 04:16:00,
2013-06-15 00:20:00,58.5,57.4,29.86,WSW,240,0.0,2.0,96,0.00,,BKN250,0.00,0.00,VWS V14.01,2013-06-15 04:20:00,
2013-06-15 00:21:00,58.5,57.4,29.86,WSW,240,3.0,3.0,96,0.00,,FEW070,0.00,0.00,VWS V14.01,2013-06-15 04:21:00,
2013-06-15 00:25:00,58.6,57.5,29.86,WNW,287,0.0,4.0,96,0.00,,BKN250,0.00,0.00,VWS V14.01,2013-06-15 04:25:00,
2013-06-15 00:26:00,58.6,57.5,29.86,WNW,287,0.0,0.0,96,0.00,,FEW070,0.00,0.00,VWS V14.01,2013-06-15 04:26:00,
2013-06-15 00:30:00,58.6,57.5,29.86,WNW,291,0.0,3.0,96,0.00,,BKN250,0.00,0.00,VWS V14.01,2013-06-15 04:30:00,
2013-06-15 00:31:00,58.7,57.6,29.86,WNW,291,0.0,1.0,96,0.00,,FEW070,0.00,0.00,VWS V14.01,2013-06-15 04:31:00,
2013-06-15 00:35:00,58.8,57.7,29.86,NW,314,0.0,3.0,96,0.00,,BKN250,0.00,0.00,VWS V14.01,2013-06-15 04:35:00,
2013-06-15 00:36:00,58.8,57.7,29.86,NW,314,0.0,1.0,96,0.00,,FEW070,0.00,0.00,VWS V14.01,2013-06-15 04:36:00,
2013-06-15 00:40:00,58.8,57.7,29.86,NW,314,0.0,2.0,96,0.00,,BKN250,0.00,0.00,VWS V14.01,2013-06-15 04:40:00,
2013-06-15 00:41:00,58.8,57.7,29.86,NW,314,0.0,0.0,96,0.00,,FEW070,0.00,0.00,VWS V14.01,2013-06-15 04:41:00,
2013-06-15 00:45:00,58.9,57.8,29.86,NW,314,1.0,2.0,96,0.00,,BKN250,0.00,0.00,VWS V14.01,2013-06-15 04:45:00,
2013-06-15 00:46:00,58.9,57.8,29.86,NW,314,0.0,1.0,96,0.00,,FEW070,0.00,0.00,VWS V14.01,2013-06-15 04:46:00,
2013-06-15 00:50:00,58.9,57.8,29.86,NW,313,0.0,4.0,96,0.00,,BKN250,0.00,0.00,VWS V14.01,2013-06-15 04:50:00,
2013-06-15 00:51:00,59.0,57.9,29.86,NW,313,0.0,2.0,96,0.00,,FEW070,0.00,0.00,VWS V14.01,2013-06-15 04:51:00,
2013-06-15 00:55:00,59.0,57.9,29.86,NW,313,0.0,2.0,96,0.00,,BKN250,0.00,0.00,VWS V14.01,2013-06-15 04:55:00,
2013-06-15 00:56:00,59.0,57.9,29.86,NW,313,0.0,0.0,96,0.00,,FEW070,0.00,0.00,VWS V14.01,2013-06-15 04:56:00,
2013-06-15 01:00:00,59.0,57.9,29.86,NW,313,2.0,3.0,96,0.00,,BKN250,0.00,0.00,VWS V14.01,2013-06-15 05:00:00,
2013-06-15 01:01:00,59.0,57.9,29.86,NW,313,1.0,3.0,96,0.00,,CLR,0.00,0.00,VWS V14.01,2013-06-15 05:01:00,
2013-06-15 01:05:00,59.1,58.0,29.86,West,269,0.0,6.0,96,0.00,,BKN250,0.00,0.00,VWS V14.01,2013-06-15 05:05:00,
2013-06-15 01:06:00,59.1,58.0,29.86,West,269,0.0,1.0,96,0.00,,CLR,0.00,0.00,VWS V14.01,2013-06-15 05:06:00,
2013-06-15 01:10:00,59.1,57.7,29.86,West,269,0.0,1.0,95,0.00,,BKN250,0.00,0.00,VWS V14.01,2013-06-15 05:10:00,
2013-06-15 01:11:00,59.1,57.7,29.86,West,269,0.0,0.0,95,0.00,,CLR,0.00,0.00,VWS V14.01,2013-06-15 05:11:00,
2013-06-15 01:15:00,59.1,57.7,29.86,SW,228,0.0,3.0,95,0.00,,BKN250,0.00,0.00,VWS V14.01,2013-06-15 05:15:00,
2013-06-15 01:16:00,59.1,57.7,29.86,SW,228,0.0,0.0,95,0.00,,CLR,0.00,0.00,VWS V14.01,2013-06-15 05:16:00,
2013-06-15 01:20:00,59.1,57.7,29.86,SW,228,0.0,3.0,95,0.00,,BKN250,0.00,0.00,VWS V14.01,2013-06-15 05:20:00,
2013-06-15 01:21:00,59.1,57.7,29.86,SW,228,1.0,1.0,95,0.00,,CLR,0.00,0.00,VWS V14.01,2013-06-15 05:21:00,
2013-06-15 01:25:00,59.1,57.7,29.86,SW,228,0.0,1.0,95,0.00,,BKN250,0.00,0.00,VWS V14.01,2013-06-15 05:25:00,
2013-06-15 01:26:00,59.1,57.7,29.86,SW,228,0.0,0.0,95,0.00,,CLR,0.00,0.00,VWS V14.01,2013-06-15 05:26:00,
2013-06-15 01:30:00,59.0,57.6,29.87,SW,228,0.0,1.0,95,0.00,,BKN250,0.00,0.00,VWS V14.01,2013-06-15 05:30:00,
2013-06-15 01:31:00,59.0,57.6,29.86,SW,228,0.0,0.0,95,0.00,,CLR,0.00,0.00,VWS V14.01,2013-06-15 05:31:00,
2013-06-15 01:35:00,59.0,57.6,29.87,SW,228,0.0,1.0,95,0.00,,BKN250,0.00,0.00,VWS V14.01,2013-06-15 05:35:00,
2013-06-15 01:36:00,59.0,57.6,29.87,SW,228,0.0,1.0,95,0.00,,CLR,0.00,0.00,VWS V14.01,2013-06-15 05:36:00,
2013-06-15 01:40:00,58.9,57.5,29.87,SW,232,0.0,3.0,95,0.00,,BKN250,0.00,0.00,VWS V14.01,2013-06-15 05:40:00,
2013-06-15 01:41:00,59.0,57.6,29.87,SW,232,2.0,2.0,95,0.00,,CLR,0.00,0.00,VWS V14.01,2013-06-15 05:41:00,
2013-06-15 01:45:00,59.0,57.6,29.87,SW,232,0.0,2.0,95,0.00,,BKN250,0.00,0.00,VWS V14.01,2013-06-15 05:45:00,
2013-06-15 01:46:00,58.9,57.5,29.87,SW,232,0.0,0.0,95,0.00,,CLR,0.00,0.00,VWS V14.01,2013-06-15 05:46:00,
2013-06-15 01:50:00,58.9,57.5,29.87,SW,232,0.0,1.0,95,0.00,,BKN250,0.00,0.00,VWS V14.01,2013-06-15 05:50:00,
2013-06-15 01:51:00,58.9,57.5,29.87,SW,232,0.0,0.0,95,0.00,,CLR,0.00,0.00,VWS V14.01,2013-06-15 05:51:00,
2013-06-15 01:55:00,58.8,57.4,29.87,SW,232,0.0,1.0,95,0.00,,BKN250,0.00,0.00,VWS V14.01,2013-06-15 05:55:00,
2013-06-15 01:56:00,58.8,57.4,29.87,SW,232,0.0,0.0,95,0.00,,CLR,0.00,0.00,VWS V14.01,2013-06-15 05:56:00,
2013-06-15 02:00:00,58.7,57.3,29.87,SW,232,0.0,1.0,95,0.00,,BKN250,0.00,0.00,VWS V14.01,2013-06-15 06:00:00,
2013-06-15 02:01:00,58.6,57.2,29.87,SW,232,0.0,0.0,95,0.00,,CLR,0.00,0.00,VWS V14.01,2013-06-15 06:01:00,
2013-06-15 02:05:00,58.5,57.1,29.87,SW,232,0.0,0.0,95,0.00,,CLR,0.00,0.00,VWS V14.01,2013-06-15 06:05:00,
2013-06-15 02:10:00,58.4,57.0,29.87,SW,232,0.0,0.0,95,0.00,,CLR,0.00,0.00,VWS V14.01,2013-06-15 06:10:00,
2013-06-15 02:15:00,58.3,56.9,29.88,SW,232,0.0,0.0,95,0.00,,CLR,0.00,0.00,VWS V14.01,2013-06-15 06:15:00,
2013-06-15 02:20:00,58.3,56.9,29.88,SW,232,0.0,0.0,95,0.00,,CLR,0.00,0.00,VWS V14.01,2013-06-15 06:20:00,
2013-06-15 02:25:00,58.2,56.8,29.88,SW,232,0.0,0.0,95,0.00,,CLR,0.00,0.00,VWS V14.01,2013-06-15 06:25:00,
2013-06-15 02:30:00,58.1,57.0,29.88,SW,232,0.0,1.0,96,0.00,,CLR,0.00,0.00,VWS V14.01,2013-06-15 06:30:00,
2013-06-15 02:35:00,58.2,57.1,29.88,SW,232,0.0,0.0,96,0.00,,CLR,0.00,0.00,VWS V14.01,2013-06-15 06:35:00,
2013-06-15 02:40:00,58.3,57.2,29.88,SW,232,1.0,4.0,96,0.01,,CLR,0.01,0.00,VWS V14.01,2013-06-15 06:40:00,
2013-06-15 02:45:00,58.6,57.5,29.88,WNW,292,5.0,5.0,96,0.01,,CLR,0.01,0.00,VWS V14.01,2013-06-15 06:45:00,
2013-06-15 02:50:00,58.9,57.8,29.88,WSW,255,0.0,0.0,96,0.01,,CLR,0.01,0.00,VWS V14.01,2013-06-15 06:50:00,
2013-06-15 02:55:00,59.1,58.0,29.89,WSW,255,0.0,0.0,96,0.01,,CLR,0.01,0.00,VWS V14.01,2013-06-15 06:55:00,
2013-06-15 03:00:00,59.2,57.8,29.89,WSW,255,0.0,0.0,95,0.01,,CLR,0.01,0.00,VWS V14.01,2013-06-15 07:00:00,
2013-06-15 03:05:00,59.2,57.8,29.89,WSW,255,0.0,0.0,95,0.01,,CLR,0.01,0.00,VWS V14.01,2013-06-15 07:05:00,
2013-06-15 03:10:00,59.3,57.9,29.89,WSW,255,0.0,0.0,95,0.01,,CLR,0.01,0.00,VWS V14.01,2013-06-15 07:10:00,
2013-06-15 03:15:00,59.3,57.9,29.89,West,281,1.0,4.0,95,0.01,,CLR,0.01,0.00,VWS V14.01,2013-06-15 07:15:00,
2013-06-15 03:20:00,59.4,58.0,29.90,West,281,0.0,0.0,95,0.01,,CLR,0.01,0.00,VWS V14.01,2013-06-15 07:20:00,
2013-06-15 03:25:00,59.4,57.7,29.90,West,281,0.0,0.0,94,0.01,,CLR,0.01,0.00,VWS V14.01,2013-06-15 07:25:00,
2013-06-15 03:30:00,59.3,57.6,29.90,West,281,0.0,0.0,94,0.01,,CLR,0.01,0.00,VWS V14.01,2013-06-15 07:30:00,
2013-06-15 03:35:00,59.2,57.5,29.89,West,281,0.0,0.0,94,0.01,,CLR,0.01,0.00,VWS V14.01,2013-06-15 07:35:00,
2013-06-15 03:40:00,59.0,57.3,29.89,West,281,0.0,0.0,94,0.00,,CLR,0.01,0.00,VWS V14.01,2013-06-15 07:40:00,
2013-06-15 03:45:00,58.9,57.2,29.89,West,281,0.0,0.0,94,0.00,,CLR,0.01,0.00,VWS V14.01,2013-06-15 07:45:00,
2013-06-15 03:50:00,58.8,57.4,29.89,West,281,0.0,0.0,95,0.00,,CLR,0.01,0.00,VWS V14.01,2013-06-15 07:50:00,
2013-06-15 03:55:00,58.7,57.3,29.89,West,281,0.0,0.0,95,0.00,,CLR,0.01,0.00,VWS V14.01,2013-06-15 07:55:00,
2013-06-15 04:00:00,58.6,57.2,29.89,West,281,1.0,1.0,95,0.00,,CLR,0.01,0.00,VWS V14.01,2013-06-15 08:00:00,
2013-06-15 04:05:00,58.5,57.1,29.89,West,281,0.0,1.0,95,0.00,,CLR,0.01,0.00,VWS V14.01,2013-06-15 08:05:00,
2013-06-15 04:10:00,58.4,57.0,29.89,West,281,0.0,0.0,95,0.00,,CLR,0.01,0.00,VWS V14.01,2013-06-15 08:10:00,
2013-06-15 04:15:00,58.4,57.0,29.89,West,281,0.0,0.0,95,0.00,,CLR,0.01,0.00,VWS V14.01,2013-06-15 08:15:00,
2013-06-15 04:20:00,58.3,56.9,29.89,West,281,0.0,0.0,95,0.00,,CLR,0.01,0.00,VWS V14.01,2013-06-15 08:20:00,
2013-06-15 04:25:00,58.1,56.7,29.89,West,281,1.0,1.0,95,0.00,,CLR,0.01,0.00,VWS V14.01,2013-06-15 08:25:00,
2013-06-15 04:30:00,58.1,56.7,29.89,West,281,0.0,0.0,95,0.00,,CLR,0.01,0.00,VWS V14.01,2013-06-15 08:30:00,
2013-06-15 04:35:00,58.0,56.9,29.90,West,281,0.0,0.0,96,0.00,,CLR,0.01,0.00,VWS V14.01,2013-06-15 08:35:00,
2013-06-15 04:40:00,57.8,56.7,29.90,West,281,0.0,0.0,96,0.00,,CLR,0.01,0.00,VWS V14.01,2013-06-15 08:40:00,
2013-06-15 04:45:00,57.7,56.3,29.90,West,281,0.0,0.0,95,0.00,,CLR,0.01,0.00,VWS V14.01,2013-06-15 08:45:00,
2013-06-15 04:50:00,57.6,56.5,29.90,West,281,0.0,0.0,96,0.00,,CLR,0.01,0.00,VWS V14.01,2013-06-15 08:50:00,
2013-06-15 04:55:00,57.6,56.5,29.90,West,281,1.0,1.0,96,0.00,,CLR,0.01,0.00,VWS V14.01,2013-06-15 08:55:00,
2013-06-15 05:00:00,57.7,56.6,29.90,West,281,0.0,0.0,96,0.00,,CLR,0.01,0.00,VWS V14.01,2013-06-15 09:00:00,
2013-06-15 05:05:00,57.8,56.7,29.90,West,281,1.0,2.0,96,0.00,,CLR,0.01,0.00,VWS V14.01,2013-06-15 09:05:00,
2013-06-15 05:10:00,58.0,56.9,29.90,West,281,0.0,0.0,96,0.00,,CLR,0.01,0.00,VWS V14.01,2013-06-15 09:10:00,
2013-06-15 05:15:00,58.2,57.1,29.90,West,281,0.0,0.0,96,0.00,,CLR,0.01,0.00,VWS V14.01,2013-06-15 09:15:00,
2013-06-15 05:20:00,58.4,57.3,29.91,West,281,0.0,0.0,96,0.00,,CLR,0.01,0.00,VWS V14.01,2013-06-15 09:20:00,
2013-06-15 05:25:00,58.4,57.0,29.92,West,281,0.0,0.0,95,0.00,,CLR,0.01,5.00,VWS V14.01,2013-06-15 09:25:00,
2013-06-15 05:30:00,58.4,57.0,29.92,West,281,0.0,0.0,95,0.00,,CLR,0.01,7.00,VWS V14.01,2013-06-15 09:30:00,
2013-06-15 05:35:00,58.4,57.0,29.91,West,281,2.0,2.0,95,0.00,,CLR,0.01,9.00,VWS V14.01,2013-06-15 09:35:00,
2013-06-15 05:40:00,58.6,57.2,29.92,West,281,0.0,0.0,95,0.00,,CLR,0.01,11.00,VWS V14.01,2013-06-15 09:40:00,
2013-06-15 05:45:00,58.9,57.5,29.92,West,281,0.0,0.0,95,0.00,,CLR,0.01,14.00,VWS V14.01,2013-06-15 09:45:00,
2013-06-15 05:50:00,59.0,57.3,29.92,West,281,0.0,0.0,94,0.00,,CLR,0.01,19.00,VWS V14.01,2013-06-15 09:50:00,
2013-06-15 05:55:00,59.0,57.3,29.92,West,281,0.0,0.0,94,0.00,,CLR,0.01,28.00,VWS V14.01,2013-06-15 09:55:00,
2013-06-15 06:00:00,58.9,57.2,29.92,West,281,0.0,0.0,94,0.00,,CLR,0.01,35.00,VWS V14.01,2013-06-15 10:00:00,
2013-06-15 06:05:00,58.9,57.2,29.92,West,281,0.0,0.0,94,0.00,,CLR,0.01,44.00,VWS V14.01,2013-06-15 10:05:00,
2013-06-15 06:10:00,58.9,57.2,29.92,West,281,1.0,1.0,94,0.00,,CLR,0.01,54.00,VWS V14.01,2013-06-15 10:10:00,
2013-06-15 06:15:00,58.9,57.2,29.92,West,281,0.0,1.0,94,0.00,,CLR,0.01,65.00,VWS V14.01,2013-06-15 10:15:00,
2013-06-15 06:20:00,58.9,57.2,29.92,West,281,0.0,0.0,94,0.00,,CLR,0.01,74.00,VWS V14.01,2013-06-15 10:20:00,
2013-06-15 06:25:00,58.9,57.5,29.92,West,281,0.0,0.0,95,0.00,,CLR,0.01,86.00,VWS V14.01,2013-06-15 10:25:00,
2013-06-15 06:30:00,59.0,57.6,29.92,West,281,0.0,0.0,95,0.00,,CLR,0.01,98.00,VWS V14.01,2013-06-15 10:30:00,
2013-06-15 06:35:00,59.1,57.7,29.92,West,281,0.0,0.0,95,0.00,,CLR,0.01,111.00,VWS V14.01,2013-06-15 10:35:00,
2013-06-15 06:40:00,59.3,57.9,29.92,West,281,0.0,0.0,95,0.00,,CLR,0.01,121.00,VWS V14.01,2013-06-15 10:40:00,
2013-06-15 06:45:00,59.5,58.1,29.93,West,281,0.0,0.0,95,0.00,,CLR,0.01,137.00,VWS V14.01,2013-06-15 10:45:00,
2013-06-15 06:50:00,59.8,58.4,29.92,West,281,0.0,0.0,95,0.00,,CLR,0.01,151.00,VWS V14.01,2013-06-15 10:50:00,
2013-06-15 06:55:00,60.2,58.8,29.93,West,281,0.0,0.0,95,0.00,,CLR,0.01,162.00,VWS V14.01,2013-06-15 10:55:00,
2013-06-15 07:00:00,60.5,59.4,29.93,NW,311,0.0,3.0,96,0.00,,CLR,0.01,176.00,VWS V14.01,2013-06-15 11:00:00,
2013-06-15 07:05:00,60.8,59.4,29.93,NW,311,0.0,0.0,95,0.00,,CLR,0.01,188.00,VWS V14.01,2013-06-15 11:05:00,
2013-06-15 07:10:00,61.3,59.9,29.94,NW,316,4.0,4.0,95,0.00,,CLR,0.01,200.00,VWS V14.01,2013-06-15 11:10:00,
2013-06-15 07:15:00,61.8,59.8,29.94,NNW,334,0.0,1.0,93,0.00,,CLR,0.01,211.00,VWS V14.01,2013-06-15 11:15:00,
2013-06-15 07:20:00,62.3,59.3,29.94,WNW,288,1.0,1.0,90,0.00,,CLR,0.01,223.00,VWS V14.01,2013-06-15 11:20:00,
2013-06-15 07:25:00,63.0,59.1,29.94,NNE,18,0.0,1.0,87,0.00,,CLR,0.01,234.00,VWS V14.01,2013-06-15 11:25:00,
2013-06-15 07:30:00,63.4,58.8,29.94,NNW,329,1.0,1.0,85,0.00,,CLR,0.01,248.00,VWS V14.01,2013-06-15 11:30:00,
2013-06-15 07:35:00,63.8,59.2,29.94,NNW,329,0.0,0.0,85,0.00,,CLR,0.01,251.00,VWS V14.01,2013-06-15 11:35:00,
2013-06-15 07:40:00,64.1,58.8,29.95,NNW,329,1.0,1.0,83,0.00,,CLR,0.01,274.00,VWS V14.01,2013-06-15 11:40:00,
2013-06-15 07:45:00,64.5,59.2,29.95,North,350,0.0,1.0,83,0.00,,CLR,0.01,285.00,VWS V14.01,2013-06-15 11:45:00,
2013-06-15 07:50:00,64.9,59.3,29.95,NNW,331,1.0,2.0,82,0.00,,CLR,0.01,308.00,VWS V14.01,2013-06-15 11:50:00,
2013-06-15 07:55:00,65.1,59.1,29.95,West,263,0.0,1.0,81,0.00,,CLR,0.01,346.00,VWS V14.01,2013-06-15 11:55:00,
2013-06-15 08:00:00,65.3,59.0,29.95,West,263,0.0,1.0,80,0.00,,CLR,0.01,360.00,VWS V14.01,2013-06-15 12:00:00,
2013-06-15 08:05:00,65.6,59.3,29.95,NW,320,1.0,1.0,80,0.00,,FEW250,0.01,381.00,VWS V14.01,2013-06-15 12:05:00,
2013-06-15 08:10:00,65.8,59.8,29.95,NW,319,3.0,3.0,81,0.00,,FEW250,0.01,397.00,VWS V14.01,2013-06-15 12:10:00,
2013-06-15 08:15:00,66.0,59.7,29.95,NW,319,0.0,0.0,80,0.00,,FEW250,0.01,413.00,VWS V14.01,2013-06-15 12:15:00,
2013-06-15 08:20:00,66.6,60.2,29.95,NW,319,1.0,2.0,80,0.00,,FEW250,0.01,413.00,VWS V14.01,2013-06-15 12:20:00,
2013-06-15 08:25:00,66.9,59.8,29.96,NW,319,4.0,4.0,78,0.00,,FEW250,0.01,434.00,VWS V14.01,2013-06-15 12:25:00,
2013-06-15 08:30:00,67.1,59.3,29.96,NW,313,1.0,1.0,76,0.00,,FEW250,0.01,443.00,VWS V14.01,2013-06-15 12:30:00,
2013-06-15 08:35:00,67.4,59.6,29.96,NNW,327,2.0,3.0,76,0.00,,FEW250,0.01,466.00,VWS V14.01,2013-06-15 12:35:00,
2013-06-15 08:40:00,67.7,59.9,29.96,NW,323,2.0,2.0,76,0.00,,FEW250,0.01,476.00,VWS V14.01,2013-06-15 12:40:00,
2013-06-15 08:45:00,67.9,59.3,29.97,NNW,331,0.0,2.0,74,0.00,,FEW250,0.01,490.00,VWS V14.01,2013-06-15 12:45:00,
2013-06-15 08:50:00,68.1,59.9,29.97,NNW,327,3.0,4.0,75,0.00,,FEW250,0.01,504.00,VWS V14.01,2013-06-15 12:50:00,
2013-06-15 08:55:00,68.3,59.7,29.97,NNW,327,2.0,2.0,74,0.00,,FEW250,0.01,520.00,VWS V14.01,2013-06-15 12:55:00,
2013-06-15 09:00:00,68.7,59.7,29.97,West,266,1.0,2.0,73,0.00,,FEW250,0.01,531.00,VWS V14.01,2013-06-15 13:00:00,
2013-06-15 09:05:00,69.2,59.8,29.98,NNW,343,1.0,3.0,72,0.00,,FEW250,0.01,545.00,VWS V14.01,2013-06-15 13:05:00,
2013-06-15 09:10:00,69.5,60.1,29.98,NW,323,3.0,3.0,72,0.00,,FEW250,0.01,561.00,VWS V14.01,2013-06-15 13:10:00,
2013-06-15 09:15:00,69.7,59.1,29.98,West,281,3.0,4.0,69,0.00,,FEW250,0.01,573.00,VWS V14.01,2013-06-15 13:15:00,
2013-06-15 09:20:00,69.6,59.4,29.98,West,270,4.0,4.0,70,0.00,,FEW250,0.01,592.00,VWS V14.01,2013-06-15 13:20:00,
2013-06-15 09:25:00,69.8,59.2,29.98,North,355,2.0,3.0,69,0.00,,FEW250,0.01,598.00,VWS V14.01,2013-06-15 13:25:00,
2013-06-15 09:30:00,70.2,59.2,29.98,WSW,256,3.0,4.0,68,0.00,,FEW250,0.01,617.00,VWS V14.01,2013-06-15 13:30:00,
2013-06-15 09:35:00,70.3,59.2,29.98,West,261,1.0,1.0,68,0.00,,FEW250,0.01,633.00,VWS V14.01,2013-06-15 13:35:00,
2013-06-15 09:40:00,70.8,58.9,29.98,NNW,335,0.0,1.0,66,0.00,,FEW250,0.01,640.00,VWS V14.01,2013-06-15 13:40:00,
2013-06-15 09:45:00,71.1,60.0,29.98,SW,214,2.0,2.0,68,0.00,,FEW250,0.01,654.00,VWS V14.01,2013-06-15 13:45:00,
2013-06-15 09:50:00,71.3,58.9,29.98,SW,224,3.0,6.0,65,0.00,,FEW250,0.01,670.00,VWS V14.01,2013-06-15 13:50:00,
2013-06-15 09:55:00,71.9,60.4,29.98,SW,233,5.0,5.0,67,0.00,,FEW250,0.01,680.00,VWS V14.01,2013-06-15 13:55:00,
2013-06-15 10:00:00,72.2,59.8,29.98,NNW,342,5.0,5.0,65,0.00,,FEW250,0.01,693.00,VWS V14.01,2013-06-15 14:00:00,
2013-06-15 10:05:00,72.5,59.2,29.97,NW,321,3.0,3.0,63,0.00,,FEW250,0.01,707.00,VWS V14.01,2013-06-15 14:05:00,
2013-06-15 10:10:00,72.4,58.7,29.97,WNW,288,1.0,3.0,62,0.00,,FEW250,0.01,719.00,VWS V14.01,2013-06-15 14:10:00,
2013-06-15 10:15:00,72.6,59.7,29.97,West,261,2.0,2.0,64,0.00,,FEW250,0.01,726.00,VWS V14.01,2013-06-15 14:15:00,
2013-06-15 10:20:00,73.0,59.7,29.97,NW,325,1.0,2.0,63,0.00,,FEW250,0.01,742.00,VWS V14.01,2013-06-15 14:20:00,
2013-06-15 10:25:00,73.7,58.5,29.96,West,267,3.0,3.0,59,0.00,,FEW250,0.01,751.00,VWS V14.01,2013-06-15 14:25:00,
2013-06-15 10:30:00,73.5,56.9,29.96,NW,304,1.0,1.0,56,0.00,,FEW250,0.01,761.00,VWS V14.01,2013-06-15 14:30:00,
2013-06-15 10:35:00,74.0,57.8,29.96,West,273,1.0,1.0,57,0.00,,FEW250,0.01,770.00,VWS V14.01,2013-06-15 14:35:00,
2013-06-15 10:40:00,74.2,56.5,29.97,NNW,337,0.0,1.0,54,0.00,,FEW250,0.01,780.00,VWS V14.01,2013-06-15 14:40:00,
2013-06-15 10:45:00,74.7,55.4,29.96,NNW,348,1.0,1.0,51,0.00,,FEW250,0.01,791.00,VWS V14.01,2013-06-15 14:45:00,
2013-06-15 10:50:00,74.8,54.9,29.96,NW,309,4.0,5.0,50,0.00,,FEW250,0.01,802.00,VWS V14.01,2013-06-15 14:50:00,
2013-06-15 10:55:00,74.5,55.2,29.97,NW,304,0.0,1.0,51,0.00,,FEW250,0.01,809.00,VWS V14.01,2013-06-15 14:55:00,
2013-06-15 11:00:00,74.8,54.9,29.97,NW,315,2.0,2.0,50,0.00,,FEW250,0.01,816.00,VWS V14.01,2013-06-15 15:00:00,
2013-06-15 11:05:00,74.9,53.9,29.97,WSW,258,0.0,0.0,48,0.00,,FEW250,0.01,823.00,VWS V14.01,2013-06-15 15:05:00,
2013-06-15 11:10:00,75.6,54.5,29.97,WNW,292,3.0,3.0,48,0.00,,FEW250,0.01,833.00,VWS V14.01,2013-06-15 15:10:00,
2013-06-15 11:15:00,75.7,55.2,29.97,WNW,289,2.0,2.0,49,0.00,,FEW250,0.01,842.00,VWS V14.01,2013-06-15 15:15:00,
2013-06-15 11:20:00,75.3,53.7,29.97,WNW,303,3.0,3.0,47,0.00,,FEW250,0.01,849.00,VWS V14.01,2013-06-15 15:20:00,
2013-06-15 11:25:00,75.4,54.9,29.97,North,9,3.0,3.0,49,0.00,,FEW250,0.01,849.00,VWS V14.01,2013-06-15 15:25:00,
2013-06-15 11:30:00,75.6,54.5,29.97,WNW,296,3.0,3.0,48,0.00,,FEW250,0.01,861.00,VWS V14.01,2013-06-15 15:30:00,
2013-06-15 11:35:00,76.1,55.0,29.97,NW,322,3.0,3.0,48,0.00,,FEW250,0.01,870.00,VWS V14.01,2013-06-15 15:35:00,
2013-06-15 11:40:00,76.2,53.9,29.97,NW,326,1.0,1.0,46,0.00,,FEW250,0.01,872.00,VWS V14.01,2013-06-15 15:40:00,
2013-06-15 11:45:00,76.1,53.2,29.97,North,350,5.0,5.0,45,0.00,,FEW250,0.01,881.00,VWS V14.01,2013-06-15 15:45:00,
2013-06-15 11:50:00,76.6,56.0,29.97,West,279,6.0,6.0,49,0.00,,FEW250,0.01,889.00,VWS V14.01,2013-06-15 15:50:00,
2013-06-15 11:55:00,76.7,53.2,29.97,West,279,0.0,1.0,44,0.00,,FEW250,0.01,884.00,VWS V14.01,2013-06-15 15:55:00,
2013-06-15 12:00:00,76.2,53.3,29.98,West,280,3.0,8.0,45,0.00,,FEW250,0.01,895.00,VWS V14.01,2013-06-15 16:00:00,
2013-06-15 12:05:00,76.4,54.1,29.97,WNW,302,2.0,3.0,46,0.00,,FEW250,0.01,900.00,VWS V14.01,2013-06-15 16:05:00,
2013-06-15 12:10:00,76.6,53.7,29.97,NNE,12,3.0,7.0,45,0.00,,FEW250,0.01,900.00,VWS V14.01,2013-06-15 16:10:00,
2013-06-15 12:15:00,76.9,52.7,29.97,WNW,296,1.0,1.0,43,0.00,,FEW250,0.01,909.00,VWS V14.01,2013-06-15 16:15:00,
2013-06-15 12:20:00,77.3,54.9,29.97,WSW,248,7.0,7.0,46,0.00,,FEW250,0.01,919.00,VWS V14.01,2013-06-15 16:20:00,
2013-06-15 12:25:00,77.6,54.0,29.97,NNW,343,1.0,9.0,44,0.00,,FEW250,0.01,937.00,VWS V14.01,2013-06-15 16:25:00,
2013-06-15 12:30:00,77.6,54.0,29.96,NNW,333,2.0,8.0,44,0.00,,FEW250,0.01,928.00,VWS V14.01,2013-06-15 16:30:00,
2013-06-15 12:35:00,77.4,53.2,29.96,NW,323,2.0,10.0,43,0.00,,FEW250,0.01,926.00,VWS V14.01,2013-06-15 16:35:00,
2013-06-15 12:40:00,78.0,53.7,29.96,North,355,0.0,6.0,43,0.00,,FEW250,0.01,925.00,VWS V14.01,2013-06-15 16:40:00,
2013-06-15 12:45:00,77.8,53.5,29.96,NW,317,3.0,7.0,43,0.00,,FEW250,0.01,939.00,VWS V14.01,2013-06-15 16:45:00,
2013-06-15 12:50:00,77.7,51.5,29.96,WNW,283,6.0,9.0,40,0.00,,FEW250,0.01,963.00,VWS V14.01,2013-06-15 16:50:00,
2013-06-15 12:55:00,77.9,53.0,29.95,WNW,292,3.0,7.0,42,0.00,,FEW250,0.01,933.00,VWS V14.01,2013-06-15 16:55:00,
2013-06-15 13:00:00,77.9,52.3,29.95,WSW,254,6.0,9.0,41,0.00,,FEW250,0.01,935.00,VWS V14.01,2013-06-15 17:00:00,
2013-06-15 13:05:00,77.9,53.6,29.95,North,5,5.0,7.0,43,0.00,,SCT250,0.01,940.00,VWS V14.01,2013-06-15 17:05:00,
2013-06-15 13:10:00,78.0,53.1,29.95,West,273,0.0,8.0,42,0.00,,SCT250,0.01,947.00,VWS V14.01,2013-06-15 17:10:00,
2013-06-15 13:15:00,78.4,50.7,29.95,WNW,294,2.0,8.0,38,0.00,,SCT250,0.01,1007.00,VWS V14.01,2013-06-15 17:15:00,
2013-06-15 13:20:00,78.5,52.2,29.95,NW,313,6.0,7.0,40,0.00,,SCT250,0.01,949.00,VWS V14.01,2013-06-15 17:20:00,
2013-06-15 13:25:00,78.8,53.8,29.95,NNE,28,5.0,8.0,42,0.00,,SCT250,0.01,937.00,VWS V14.01,2013-06-15 17:25:00,
2013-06-15 13:30:00,78.5,52.9,29.95,NE,53,1.0,10.0,41,0.00,,SCT250,0.01,935.00,VWS V14.01,2013-06-15 17:30:00,
2013-06-15 13:35:00,78.3,52.0,29.95,North,5,4.0,8.0,40,0.00,,SCT250,0.01,935.00,VWS V14.01,2013-06-15 17:35:00,
2013-06-15 13:40:00,78.2,51.9,29.95,NNE,14,3.0,5.0,40,0.00,,SCT250,0.01,954.00,VWS V14.01,2013-06-15 17:40:00,
2013-06-15 13:45:00,78.4,52.8,29.95,NNE,27,2.0,6.0,41,0.00,,SCT250,0.01,960.00,VWS V14.01,2013-06-15 17:45:00,
2013-06-15 13:50:00,78.7,51.0,29.95,North,350,3.0,7.0,38,0.00,,SCT250,0.01,954.00,VWS V14.01,2013-06-15 17:50:00,
2013-06-15 13:55:00,78.8,52.5,29.95,North,360,6.0,7.0,40,0.00,,SCT250,0.01,1002.00,VWS V14.01,2013-06-15 17:55:00,
2013-06-15 14:00:00,79.2,52.1,29.95,NNE,32,4.0,6.0,39,0.00,,SCT250,0.01,946.00,VWS V14.01,2013-06-15 18:00:00,
2013-06-15 14:05:00,79.2,52.1,29.95,NE,36,2.0,7.0,39,0.00,,SCT250,0.01,951.00,VWS V14.01,2013-06-15 18:05:00,
2013-06-15 14:10:00,79.0,52.6,29.94,NNW,348,1.0,8.0,40,0.00,,SCT250,0.01,951.00,VWS V14.01,2013-06-15 18:10:00,
2013-06-15 14:15:00,79.6,52.5,29.94,North,9,7.0,8.0,39,0.00,,SCT250,0.01,981.00,VWS V14.01,2013-06-15 18:15:00,
2013-06-15 14:20:00,79.7,52.6,29.94,WNW,303,4.0,7.0,39,0.00,,SCT250,0.01,954.00,VWS V14.01,2013-06-15 18:20:00,
2013-06-15 14:25:00,79.6,53.8,29.94,NE,37,3.0,9.0,41,0.00,,SCT250,0.01,898.00,VWS V14.01,2013-06-15 18:25:00,
2013-06-15 14:30:00,79.4,52.3,29.93,WSW,256,3.0,11.0,39,0.00,,SCT250,0.01,877.00,VWS V14.01,2013-06-15 18:30:00,
2013-06-15 14:35:00,79.0,52.0,29.93,NNW,348,3.0,10.0,39,0.00,,SCT250,0.01,856.00,VWS V14.01,2013-06-15 18:35:00,
2013-06-15 14:40:00,79.3,52.9,29.93,North,5,2.0,7.0,40,0.00,,SCT250,0.01,846.00,VWS V14.01,2013-06-15 18:40:00,
2013-06-15 14:45:00,79.7,53.9,29.93,NNW,346,4.0,6.0,41,0.00,,SCT250,0.01,837.00,VWS V14.01,2013-06-15 18:45:00,
2013-06-15 14:50:00,79.9,51.3,29.93,NNE,18,5.0,10.0,37,0.00,,SCT250,0.01,831.00,VWS V14.01,2013-06-15 18:50:00,
2013-06-15 14:55:00,80.1,52.2,29.93,NNW,343,8.0,8.0,38,0.00,,SCT250,0.01,826.00,VWS V14.01,2013-06-15 18:55:00,
2013-06-15 15:00:00,80.0,51.4,29.93,NE,55,4.0,9.0,37,0.00,,SCT250,0.01,817.00,VWS V14.01,2013-06-15 19:00:00,
2013-06-15 15:05:00,80.0,52.8,29.93,NE,47,0.0,9.0,39,0.00,,SCT250,0.01,805.00,VWS V14.01,2013-06-15 19:05:00,
2013-06-15 15:10:00,80.0,52.8,29.93,North,5,8.0,8.0,39,0.00,,SCT250,0.01,800.00,VWS V14.01,2013-06-15 19:10:00,
2013-06-15 15:15:00,79.9,53.5,29.92,NW,324,3.0,9.0,40,0.00,,SCT250,0.01,793.00,VWS V14.01,2013-06-15 19:15:00,
2013-06-15 15:20:00,80.0,54.2,29.93,NW,312,3.0,8.0,41,0.00,,SCT250,0.01,786.00,VWS V14.01,2013-06-15 19:20:00,
2013-06-15 15:24:00,80.4,53.9,29.92,North,350,4.0,8.0,40,0.00,,SCT250,0.01,777.00,VWS V14.01,2013-06-15 19:24:00,
2013-06-15 15:25:00,80.5,54.0,29.92,North,350,3.0,8.0,40,0.00,,BKN250,0.01,772.00,VWS V14.01,2013-06-15 19:25:00,
2013-06-15 15:29:00,80.8,53.6,29.92,North,360,4.0,9.0,39,0.00,,SCT250,0.01,766.00,VWS V14.01,2013-06-15 19:29:00,
2013-06-15 15:34:00,80.6,53.4,29.92,WNW,286,2.0,7.0,39,0.00,,SCT250,0.01,758.00,VWS V14.01,2013-06-15 19:34:00,
2013-06-15 15:35:00,80.6,53.4,29.92,NNW,346,3.0,7.0,39,0.00,,BKN250,0.01,758.00,VWS V14.01,2013-06-15 19:35:00,
2013-06-15 15:39:00,81.0,53.0,29.92,NNE,22,4.0,8.0,38,0.00,,SCT250,0.01,744.00,VWS V14.01,2013-06-15 19:39:00,
2013-06-15 15:40:00,81.0,53.7,29.92,North,5,5.0,8.0,39,0.00,,BKN250,0.01,744.00,VWS V14.01,2013-06-15 19:40:00,
2013-06-15 15:44:00,81.0,53.0,29.92,North,355,1.0,11.0,38,0.00,,SCT250,0.01,738.00,VWS V14.01,2013-06-15 19:44:00,
2013-06-15 15:49:00,80.9,53.7,29.92,NW,319,6.0,7.0,39,0.00,,SCT250,0.01,724.00,VWS V14.01,2013-06-15 19:49:00,
2013-06-15 15:50:00,80.9,53.7,29.92,NW,323,5.0,7.0,39,0.00,,BKN250,0.01,724.00,VWS V14.01,2013-06-15 19:50:00,
2013-06-15 15:54:00,80.4,52.5,29.91,North,355,4.0,9.0,38,0.00,,SCT250,0.01,707.00,VWS V14.01,2013-06-15 19:54:00,
2013-06-15 15:55:00,80.4,52.5,29.91,North,350,5.0,9.0,38,0.00,,BKN250,0.01,705.00,VWS V14.01,2013-06-15 19:55:00,
2013-06-15 15:59:00,80.2,53.7,29.91,NNW,342,4.0,7.0,40,0.00,,SCT250,0.01,696.00,VWS V14.01,2013-06-15 19:59:00,
2013-06-15 16:00:00,80.2,52.3,29.91,NNW,342,3.0,7.0,38,0.00,,BKN250,0.01,694.00,VWS V14.01,2013-06-15 20:00:00,
2013-06-15 16:04:00,80.1,55.0,29.91,NNW,342,0.0,6.0,42,0.00,,SCT250,0.01,693.00,VWS V14.01,2013-06-15 20:04:00,
2013-06-15 16:05:00,80.1,55.0,29.91,NNW,342,0.0,6.0,42,0.00,,BKN250,0.01,693.00,VWS V14.01,2013-06-15 20:05:00,
2013-06-15 16:09:00,80.2,53.7,29.91,NNE,18,1.0,6.0,40,0.00,,SCT250,0.01,675.00,VWS V14.01,2013-06-15 20:09:00,
2013-06-15 16:10:00,80.2,53.7,29.91,WNW,300,5.0,7.0,40,0.00,,BKN250,0.01,675.00,VWS V14.01,2013-06-15 20:10:00,
2013-06-15 16:14:00,80.6,54.1,29.91,NNW,338,0.0,6.0,40,0.00,,SCT250,0.01,659.00,VWS V14.01,2013-06-15 20:14:00,
2013-06-15 16:19:00,81.0,54.4,29.91,NNW,348,4.0,6.0,40,0.00,,SCT250,0.01,638.00,VWS V14.01,2013-06-15 20:19:00,
2013-06-15 16:20:00,81.0,54.4,29.91,NW,321,2.0,6.0,40,0.00,,BKN250,0.01,638.00,VWS V14.01,2013-06-15 20:20:00,
2013-06-15 16:24:00,81.1,55.2,29.91,NNE,31,2.0,7.0,41,0.00,,SCT250,0.01,636.00,VWS V14.01,2013-06-15 20:24:00,
2013-06-15 16:29:00,80.9,55.7,29.91,NNE,19,3.0,8.0,42,0.00,,SCT250,0.01,629.00,VWS V14.01,2013-06-15 20:29:00,
2013-06-15 16:30:00,80.9,55.7,29.91,North,360,4.0,8.0,42,0.00,,BKN250,0.01,619.00,VWS V14.01,2013-06-15 20:30:00,
2013-06-15 16:34:00,80.8,54.9,29.91,NNE,15,5.0,8.0,41,0.00,,SCT250,0.01,612.00,VWS V14.01,2013-06-15 20:34:00,
2013-06-15 16:35:00,80.8,54.9,29.91,NNE,15,4.0,8.0,41,0.00,,BKN250,0.01,612.00,VWS V14.01,2013-06-15 20:35:00,
2013-06-15 16:39:00,80.7,54.8,29.90,North,5,2.0,7.0,41,0.00,,SCT250,0.01,603.00,VWS V14.01,2013-06-15 20:39:00,
2013-06-15 16:40:00,80.7,55.5,29.90,North,5,1.0,7.0,42,0.00,,BKN250,0.01,603.00,VWS V14.01,2013-06-15 20:40:00,
2013-06-15 16:44:00,81.1,55.9,29.91,NW,304,2.0,4.0,42,0.00,,SCT250,0.01,587.00,VWS V14.01,2013-06-15 20:44:00,
2013-06-15 16:45:00,81.1,55.9,29.91,NW,304,1.0,4.0,42,0.00,,BKN250,0.01,587.00,VWS V14.01,2013-06-15 20:45:00,
2013-06-15 16:49:00,81.5,54.9,29.91,West,269,3.0,6.0,40,0.00,,SCT250,0.01,570.00,VWS V14.01,2013-06-15 20:49:00,
2013-06-15 16:54:00,81.4,54.8,29.91,NW,326,4.0,8.0,40,0.00,,SCT250,0.01,445.00,VWS V14.01,2013-06-15 20:54:00,
2013-06-15 16:55:00,81.4,54.8,29.91,NW,319,1.0,8.0,40,0.00,,BKN250,0.01,445.00,VWS V14.01,2013-06-15 20:55:00,
2013-06-15 16:59:00,81.4,55.5,29.91,NNE,19,3.0,4.0,41,0.00,,SCT250,0.01,445.00,VWS V14.01,2013-06-15 20:59:00,
2013-06-15 17:00:00,81.5,55.6,29.91,NNE,14,6.0,6.0,41,0.00,,BKN250,0.01,445.00,VWS V14.01,2013-06-15 21:00:00,
2013-06-15 17:04:00,81.4,55.5,29.91,North,5,0.0,8.0,41,0.00,,BKN070,0.01,531.00,VWS V14.01,2013-06-15 21:04:00,
2013-06-15 17:05:00,81.4,55.5,29.91,North,5,1.0,8.0,41,0.00,,BKN250,0.01,531.00,VWS V14.01,2013-06-15 21:05:00,
2013-06-15 17:09:00,81.4,56.1,29.91,NNW,335,5.0,8.0,42,0.00,,BKN070,0.01,524.00,VWS V14.01,2013-06-15 21:09:00,
2013-06-15 17:14:00,81.3,55.4,29.91,NNE,12,4.0,6.0,41,0.00,,BKN070,0.01,497.00,VWS V14.01,2013-06-15 21:14:00,
2013-06-15 17:15:00,81.3,56.0,29.91,NNW,334,5.0,6.0,42,0.00,,BKN250,0.01,497.00,VWS V14.01,2013-06-15 21:15:00,
2013-06-15 17:19:00,81.5,56.2,29.91,North,5,3.0,5.0,42,0.00,,BKN070,0.01,496.00,VWS V14.01,2013-06-15 21:19:00,
2013-06-15 17:20:00,81.5,56.2,29.91,North,5,1.0,5.0,42,0.00,,BKN250,0.01,496.00,VWS V14.01,2013-06-15 21:20:00,
2013-06-15 17:24:00,81.6,56.3,29.91,NNE,20,4.0,4.0,42,0.00,,BKN070,0.01,485.00,VWS V14.01,2013-06-15 21:24:00,
2013-06-15 17:29:00,81.6,55.6,29.91,NNE,15,2.0,4.0,41,0.00,,BKN070,0.01,471.00,VWS V14.01,2013-06-15 21:29:00,
2013-06-15 17:30:00,81.6,55.6,29.91,NNE,15,3.0,4.0,41,0.00,,BKN250,0.01,468.00,VWS V14.01,2013-06-15 21:30:00,
2013-06-15 17:34:00,81.8,55.8,29.91,North,5,2.0,6.0,41,0.00,,BKN070,0.01,459.00,VWS V14.01,2013-06-15 21:34:00,
2013-06-15 17:39:00,81.6,55.6,29.91,NW,321,2.0,5.0,41,0.00,,BKN070,0.01,439.00,VWS V14.01,2013-06-15 21:39:00,
2013-06-15 17:44:00,81.6,55.0,29.91,North,9,0.0,6.0,40,0.00,,BKN070,0.01,429.00,VWS V14.01,2013-06-15 21:44:00,
2013-06-15 17:49:00,81.3,55.4,29.91,NNW,348,3.0,7.0,41,0.00,,BKN070,0.01,390.00,VWS V14.01,2013-06-15 21:49:00,
2013-06-15 17:50:00,81.3,55.4,29.91,NNW,348,0.0,7.0,41,0.00,,BKN250,0.01,390.00,VWS V14.01,2013-06-15 21:50:00,
2013-06-15 17:54:00,81.2,56.6,29.91,NNW,348,1.0,3.0,43,0.00,,BKN070,0.01,387.00,VWS V14.01,2013-06-15 21:54:00,
2013-06-15 17:55:00,81.2,56.6,29.91,NNW,348,2.0,3.0,43,0.00,,BKN250,0.01,387.00,VWS V14.01,2013-06-15 21:55:00,
2013-06-15 17:59:00,81.2,55.3,29.91,NW,319,4.0,5.0,41,0.00,,BKN070,0.01,362.00,VWS V14.01,2013-06-15 21:59:00,
2013-06-15 18:00:00,81.2,55.3,29.91,NW,315,4.0,5.0,41,0.00,,BKN250,0.01,362.00,VWS V14.01,2013-06-15 22:00:00,
2013-06-15 18:04:00,81.0,55.8,29.91,NW,315,1.0,4.0,42,0.00,,BKN070,0.01,362.00,VWS V14.01,2013-06-15 22:04:00,
2013-06-15 18:05:00,81.0,55.8,29.91,NW,315,1.0,4.0,42,0.00,,BKN250,0.01,362.00,VWS V14.01,2013-06-15 22:05:00,
2013-06-15 18:09:00,81.0,56.4,29.91,NW,320,4.0,5.0,43,0.00,,BKN070,0.01,343.00,VWS V14.01,2013-06-15 22:09:00,
2013-06-15 18:10:00,81.0,55.8,29.91,NW,318,2.0,5.0,42,0.00,,BKN250,0.01,343.00,VWS V14.01,2013-06-15 22:10:00,
2013-06-15 18:14:00,81.1,57.2,29.91,NW,315,1.0,2.0,44,0.00,,BKN070,0.01,323.00,VWS V14.01,2013-06-15 22:14:00,
2013-06-15 18:15:00,81.2,57.2,29.91,NW,315,1.0,2.0,44,0.00,,BKN250,0.01,323.00,VWS V14.01,2013-06-15 22:15:00,
2013-06-15 18:19:00,81.3,56.7,29.91,NNW,340,2.0,3.0,43,0.00,,BKN070,0.01,309.00,VWS V14.01,2013-06-15 22:19:00,
2013-06-15 18:20:00,81.4,56.8,29.91,NNW,335,4.0,5.0,43,0.00,,BKN250,0.01,309.00,VWS V14.01,2013-06-15 22:20:00,
2013-06-15 18:24:00,81.3,56.0,29.91,NNW,345,3.0,4.0,42,0.00,,BKN070,0.01,281.00,VWS V14.01,2013-06-15 22:24:00,
2013-06-15 18:25:00,81.3,55.4,29.91,NNW,345,0.0,4.0,41,0.00,,BKN250,0.01,281.00,VWS V14.01,2013-06-15 22:25:00,
2013-06-15 18:29:00,81.4,56.1,29.91,NNW,345,1.0,1.0,42,0.00,,BKN070,0.01,267.00,VWS V14.01,2013-06-15 22:29:00,
2013-06-15 18:30:00,81.4,56.1,29.91,NNW,345,0.0,1.0,42,0.00,,BKN250,0.01,267.00,VWS V14.01,2013-06-15 22:30:00,
2013-06-15 18:34:00,81.4,55.5,29.91,NNW,346,1.0,4.0,41,0.00,,BKN070,0.01,260.00,VWS V14.01,2013-06-15 22:34:00,
2013-06-15 18:35:00,81.4,55.5,29.91,NNW,346,1.0,4.0,41,0.00,,BKN250,0.01,260.00,VWS V14.01,2013-06-15 22:35:00,
2013-06-15 18:39:00,81.3,56.0,29.91,NNW,347,0.0,3.0,42,0.00,,BKN070,0.01,253.00,VWS V14.01,2013-06-15 22:39:00,
2013-06-15 18:40:00,81.3,56.0,29.91,NNW,347,1.0,3.0,42,0.00,,BKN250,0.01,253.00,VWS V14.01,2013-06-15 22:40:00,
2013-06-15 18:44:00,81.1,55.9,29.91,North,360,0.0,6.0,42,0.00,,BKN070,0.01,237.00,VWS V14.01,2013-06-15 22:44:00,
2013-06-15 18:45:00,81.1,55.9,29.91,North,360,0.0,6.0,42,0.00,,BKN250,0.01,237.00,VWS V14.01,2013-06-15 22:45:00,
2013-06-15 18:49:00,80.9,55.7,29.91,NNW,337,1.0,5.0,42,0.00,,BKN070,0.01,213.00,VWS V14.01,2013-06-15 22:49:00,
2013-06-15 18:50:00,80.9,55.7,29.91,NNW,337,0.0,5.0,42,0.00,,BKN250,0.01,213.00,VWS V14.01,2013-06-15 22:50:00,
2013-06-15 18:54:00,80.8,54.2,29.91,NNW,340,5.0,5.0,40,0.00,,BKN070,0.01,195.00,VWS V14.01,2013-06-15 22:54:00,
2013-06-15 18:55:00,80.8,54.2,29.91,NNW,348,3.0,5.0,40,0.00,,BKN250,0.01,195.00,VWS V14.01,2013-06-15 22:55:00,
2013-06-15 18:59:00,80.5,56.0,29.91,West,281,2.0,5.0,43,0.00,,BKN070,0.01,174.00,VWS V14.01,2013-06-15 22:59:00,
2013-06-15 19:00:00,80.4,55.2,29.91,WNW,293,2.0,5.0,42,0.00,,BKN250,0.01,174.00,VWS V14.01,2013-06-15 23:00:00,
2013-06-15 19:04:00,79.9,54.8,29.91,NW,320,1.0,5.0,42,0.00,,SCT250,0.01,160.00,VWS V14.01,2013-06-15 23:04:00,
2013-06-15 19:05:00,79.9,54.8,29.91,NW,320,2.0,5.0,42,0.00,,BKN250,0.01,160.00,VWS V14.01,2013-06-15 23:05:00,
2013-06-15 19:09:00,79.5,54.4,29.91,NW,324,0.0,4.0,42,0.00,,SCT250,0.01,149.00,VWS V14.01,2013-06-15 23:09:00,
2013-06-15 19:10:00,79.5,54.4,29.91,NW,324,1.0,4.0,42,0.00,,BKN250,0.01,149.00,VWS V14.01,2013-06-15 23:10:00,
2013-06-15 19:14:00,79.4,55.6,29.91,NW,323,0.0,2.0,44,0.00,,SCT250,0.01,127.00,VWS V14.01,2013-06-15 23:14:00,
2013-06-15 19:15:00,79.5,55.7,29.91,NW,323,0.0,2.0,44,0.00,,BKN250,0.01,123.00,VWS V14.01,2013-06-15 23:15:00,
2013-06-15 19:19:00,79.3,55.5,29.91,WNW,301,3.0,4.0,44,0.00,,SCT250,0.01,114.00,VWS V14.01,2013-06-15 23:19:00,
2013-06-15 19:20:00,79.3,54.9,29.91,WNW,301,1.0,4.0,43,0.00,,BKN250,0.01,113.00,VWS V14.01,2013-06-15 23:20:00,
2013-06-15 19:24:00,79.2,55.4,29.91,WNW,301,0.0,1.0,44,0.00,,SCT250,0.01,98.00,VWS V14.01,2013-06-15 23:24:00,
2013-06-15 19:25:00,79.2,55.4,29.91,WNW,301,0.0,1.0,44,0.00,,BKN250,0.01,97.00,VWS V14.01,2013-06-15 23:25:00,
2013-06-15 19:29:00,79.1,55.3,29.91,WNW,301,0.0,0.0,44,0.00,,SCT250,0.01,84.00,VWS V14.01,2013-06-15 23:29:00,
2013-06-15 19:30:00,79.1,54.7,29.91,WNW,301,0.0,0.0,43,0.00,,BKN250,0.01,84.00,VWS V14.01,2013-06-15 23:30:00,
2013-06-15 19:34:00,78.9,57.6,29.91,WNW,301,0.0,0.0,48,0.00,,SCT250,0.01,72.00,VWS V14.01,2013-06-15 23:34:00,
2013-06-15 19:39:00,78.7,58.0,29.91,WNW,301,0.0,0.0,49,0.00,,SCT250,0.01,62.00,VWS V14.01,2013-06-15 23:39:00,
2013-06-15 19:40:00,78.6,57.3,29.91,WNW,301,0.0,0.0,48,0.00,,BKN250,0.01,62.00,VWS V14.01,2013-06-15 23:40:00,
2013-06-15 19:44:00,78.0,56.7,29.92,WNW,301,0.0,0.0,48,0.00,,SCT250,0.01,53.00,VWS V14.01,2013-06-15 23:44:00,
2013-06-15 19:45:00,77.9,56.7,29.92,WNW,301,0.0,0.0,48,0.00,,BKN250,0.01,51.00,VWS V14.01,2013-06-15 23:45:00,
2013-06-15 19:49:00,77.2,55.4,29.92,WNW,301,1.0,2.0,47,0.00,,SCT250,0.01,37.00,VWS V14.01,2013-06-15 23:49:00,
2013-06-15 19:50:00,77.0,55.2,29.92,WNW,301,0.0,2.0,47,0.00,,BKN250,0.01,37.00,VWS V14.01,2013-06-15 23:50:00,
2013-06-15 19:54:00,75.8,56.9,29.92,WNW,301,0.0,1.0,52,0.00,,SCT250,0.01,26.00,VWS V14.01,2013-06-15 23:54:00,
2013-06-15 19:55:00,75.7,56.8,29.92,WNW,301,0.0,1.0,52,0.00,,BKN250,0.01,26.00,VWS V14.01,2013-06-15 23:55:00,
2013-06-15 19:59:00,75.3,57.0,29.92,WNW,301,0.0,1.0,53,0.00,,SCT250,0.01,18.00,VWS V14.01,2013-06-15 23:59:00,
2013-06-15 20:00:00,75.2,56.9,29.92,WNW,301,0.0,1.0,53,0.00,,BKN250,0.01,18.00,VWS V14.01,2013-06-16 00:00:00,
2013-06-15 20:04:00,74.7,57.5,29.92,WNW,301,0.0,1.0,55,0.00,,SCT250,0.01,16.00,VWS V14.01,2013-06-16 00:04:00,
2013-06-15 20:05:00,74.7,58.0,29.92,WNW,301,0.0,1.0,56,0.00,,BKN250,0.01,16.00,VWS V14.01,2013-06-16 00:05:00,
2013-06-15 20:09:00,74.2,58.0,29.92,WNW,301,0.0,0.0,57,0.00,,SCT250,0.01,12.00,VWS V14.01,2013-06-16 00:09:00,
2013-06-15 20:10:00,74.2,58.0,29.92,WNW,301,0.0,0.0,57,0.00,,BKN250,0.01,12.00,VWS V14.01,2013-06-16 00:10:00,
2013-06-15 20:14:00,73.6,58.9,29.92,West,277,1.0,3.0,60,0.00,,SCT250,0.01,11.00,VWS V14.01,2013-06-16 00:14:00,
2013-06-15 20:15:00,73.6,58.9,29.92,West,277,0.0,3.0,60,0.00,,BKN250,0.01,11.00,VWS V14.01,2013-06-16 00:15:00,
2013-06-15 20:19:00,72.7,58.9,29.92,West,277,0.0,2.0,62,0.00,,SCT250,0.01,5.00,VWS V14.01,2013-06-16 00:19:00,
2013-06-15 20:20:00,72.6,58.8,29.92,West,277,0.0,2.0,62,0.00,,BKN250,0.01,5.00,VWS V14.01,2013-06-16 00:20:00,
2013-06-15 20:24:00,72.0,59.2,29.92,West,277,1.0,1.0,64,0.00,,SCT250,0.01,0.00,VWS V14.01,2013-06-16 00:24:00,
2013-06-15 20:25:00,72.0,59.2,29.92,West,277,1.0,1.0,64,0.00,,BKN250,0.01,0.00,VWS V14.01,2013-06-16 00:25:00,
2013-06-15 20:29:00,71.5,59.1,29.92,West,277,0.0,1.0,65,0.00,,SCT250,0.01,0.00,VWS V14.01,2013-06-16 00:29:00,
2013-06-15 20:30:00,71.5,59.1,29.92,West,277,0.0,1.0,65,0.00,,BKN250,0.01,0.00,VWS V14.01,2013-06-16 00:30:00,
2013-06-15 20:34:00,70.8,59.3,29.92,West,277,0.0,0.0,67,0.00,,SCT250,0.01,0.00,VWS V14.01,2013-06-16 00:34:00,
2013-06-15 20:35:00,70.8,59.3,29.92,West,277,0.0,0.0,67,0.00,,BKN250,0.01,0.00,VWS V14.01,2013-06-16 00:35:00,
2013-06-15 20:39:00,70.5,59.4,29.92,West,277,0.0,0.0,68,0.00,,SCT250,0.01,0.00,VWS V14.01,2013-06-16 00:39:00,
2013-06-15 20:40:00,70.5,59.8,29.92,West,277,0.0,0.0,69,0.00,,BKN250,0.01,0.00,VWS V14.01,2013-06-16 00:40:00,
2013-06-15 20:44:00,70.1,59.9,29.92,West,277,0.0,0.0,70,0.00,,SCT250,0.01,0.00,VWS V14.01,2013-06-16 00:44:00,
2013-06-15 20:45:00,70.1,59.9,29.92,West,277,0.0,0.0,70,0.00,,BKN250,0.01,0.00,VWS V14.01,2013-06-16 00:45:00,
2013-06-15 20:49:00,69.6,59.8,29.93,West,277,0.0,0.0,71,0.00,,SCT250,0.01,0.00,VWS V14.01,2013-06-16 00:49:00,
2013-06-15 20:50:00,69.6,59.8,29.93,West,277,0.0,0.0,71,0.00,,BKN250,0.01,0.00,VWS V14.01,2013-06-16 00:50:00,
2013-06-15 20:54:00,69.2,59.8,29.93,West,277,0.0,0.0,72,0.00,,SCT250,0.01,0.00,VWS V14.01,2013-06-16 00:54:00,
2013-06-15 20:55:00,69.1,59.7,29.93,West,277,0.0,0.0,72,0.00,,BKN250,0.01,0.00,VWS V14.01,2013-06-16 00:55:00,
2013-06-15 20:59:00,68.8,59.8,29.93,West,277,0.0,0.0,73,0.00,,SCT250,0.01,0.00,VWS V14.01,2013-06-16 00:59:00,
2013-06-15 21:00:00,68.7,60.1,29.93,West,277,0.0,0.0,74,0.00,,BKN250,0.01,0.00,VWS V14.01,2013-06-16 01:00:00,
2013-06-15 21:04:00,68.3,59.7,29.93,West,277,0.0,0.0,74,0.00,,SCT250,0.01,0.00,VWS V14.01,2013-06-16 01:04:00,
2013-06-15 21:05:00,68.3,60.1,29.93,West,277,0.0,0.0,75,0.00,,BKN250,0.01,0.00,VWS V14.01,2013-06-16 01:05:00,
2013-06-15 21:09:00,67.8,60.0,29.93,West,259,0.0,3.0,76,0.00,,SCT250,0.01,0.00,VWS V14.01,2013-06-16 01:09:00,
2013-06-15 21:10:00,67.7,59.9,29.93,West,260,1.0,3.0,76,0.00,,BKN250,0.01,0.00,VWS V14.01,2013-06-16 01:10:00,
2013-06-15 21:14:00,67.4,60.0,29.93,West,260,0.0,3.0,77,0.00,,SCT250,0.01,0.00,VWS V14.01,2013-06-16 01:14:00,
2013-06-15 21:15:00,67.4,60.0,29.93,West,260,0.0,3.0,77,0.00,,BKN250,0.01,0.00,VWS V14.01,2013-06-16 01:15:00,
2013-06-15 21:19:00,67.2,59.8,29.93,West,260,0.0,0.0,77,0.00,,SCT250,0.01,0.00,VWS V14.01,2013-06-16 01:19:00,
2013-06-15 21:20:00,67.1,59.7,29.93,West,260,0.0,0.0,77,0.00,,BKN250,0.01,0.00,VWS V14.01,2013-06-16 01:20:00,
2013-06-15 21:24:00,66.9,59.8,29.94,West,260,0.0,0.0,78,0.00,,SCT250,0.01,0.00,VWS V14.01,2013-06-16 01:24:00,
2013-06-15 21:25:00,66.9,59.8,29.94,West,260,0.0,0.0,78,0.00,,BKN250,0.01,0.00,VWS V14.01,2013-06-16 01:25:00,
2013-06-15 21:29:00,66.7,60.0,29.94,West,260,0.0,0.0,79,0.00,,SCT250,0.01,0.00,VWS V14.01,2013-06-16 01:29:00,
2013-06-15 21:30:00,66.7,60.0,29.94,West,260,0.0,0.0,79,0.00,,BKN250,0.01,0.00,VWS V14.01,2013-06-16 01:30:00,
2013-06-15 21:34:00,66.5,59.8,29.94,West,260,1.0,1.0,79,0.00,,SCT250,0.01,0.00,VWS V14.01,2013-06-16 01:34:00,
2013-06-15 21:39:00,66.3,60.0,29.94,West,259,0.0,1.0,80,0.00,,SCT250,0.01,0.00,VWS V14.01,2013-06-16 01:39:00,
2013-06-15 21:40:00,66.3,60.0,29.94,West,259,0.0,1.0,80,0.00,,BKN250,0.01,0.00,VWS V14.01,2013-06-16 01:40:00,
2013-06-15 21:44:00,66.1,59.8,29.94,West,259,0.0,2.0,80,0.00,,SCT250,0.01,0.00,VWS V14.01,2013-06-16 01:44:00,
2013-06-15 21:45:00,66.1,59.8,29.94,West,259,0.0,2.0,80,0.00,,BKN250,0.01,0.00,VWS V14.01,2013-06-16 01:45:00,
2013-06-15 21:49:00,65.9,59.6,29.95,West,260,0.0,1.0,80,0.00,,SCT250,0.01,0.00,VWS V14.01,2013-06-16 01:49:00,
2013-06-15 21:50:00,65.9,59.6,29.95,West,259,0.0,1.0,80,0.00,,BKN250,0.01,0.00,VWS V14.01,2013-06-16 01:50:00,
2013-06-15 21:54:00,65.8,59.8,29.94,West,260,0.0,1.0,81,0.00,,SCT250,0.01,0.00,VWS V14.01,2013-06-16 01:54:00,
2013-06-15 21:55:00,65.8,59.8,29.94,West,260,0.0,1.0,81,0.00,,BKN250,0.01,0.00,VWS V14.01,2013-06-16 01:55:00,
2013-06-15 21:59:00,65.7,59.7,29.95,West,259,0.0,0.0,81,0.00,,SCT250,0.01,0.00,VWS V14.01,2013-06-16 01:59:00,
2013-06-15 22:00:00,65.6,59.6,29.95,West,259,2.0,2.0,81,0.00,,BKN250,0.01,0.00,VWS V14.01,2013-06-16 02:00:00,
2013-06-15 22:04:00,65.5,59.5,29.95,WSW,239,2.0,4.0,81,0.00,,SCT250,0.01,0.00,VWS V14.01,2013-06-16 02:04:00,
2013-06-15 22:05:00,65.6,59.6,29.95,WSW,239,1.0,4.0,81,0.00,,BKN250,0.01,0.00,VWS V14.01,2013-06-16 02:05:00,
2013-06-15 22:09:00,65.5,59.5,29.95,WSW,239,0.0,3.0,81,0.00,,SCT250,0.01,0.00,VWS V14.01,2013-06-16 02:09:00,
2013-06-15 22:10:00,65.5,59.5,29.95,WSW,239,1.0,3.0,81,0.00,,BKN250,0.01,0.00,VWS V14.01,2013-06-16 02:10:00,
2013-06-15 22:14:00,65.4,59.4,29.95,WSW,239,0.0,3.0,81,0.00,,SCT250,0.01,0.00,VWS V14.01,2013-06-16 02:14:00,
2013-06-15 22:15:00,65.4,59.4,29.95,WSW,239,0.0,3.0,81,0.00,,BKN250,0.01,0.00,VWS V14.01,2013-06-16 02:15:00,
2013-06-15 22:19:00,65.4,59.4,29.95,WSW,239,0.0,1.0,81,0.00,,SCT250,0.01,0.00,VWS V14.01,2013-06-16 02:19:00,
2013-06-15 22:20:00,65.4,59.4,29.95,WSW,239,0.0,1.0,81,0.00,,BKN250,0.01,0.00,VWS V14.01,2013-06-16 02:20:00,
2013-06-15 22:24:00,65.3,59.3,29.95,WSW,239,0.0,2.0,81,0.00,,SCT250,0.01,0.00,VWS V14.01,2013-06-16 02:24:00,
2013-06-15 22:25:00,65.3,59.7,29.95,WSW,239,0.0,2.0,82,0.00,,BKN250,0.01,0.00,VWS V14.01,2013-06-16 02:25:00,
2013-06-15 22:29:00,65.2,59.6,29.95,WSW,239,0.0,0.0,82,0.00,,SCT250,0.01,0.00,VWS V14.01,2013-06-16 02:29:00,
2013-06-15 22:30:00,65.2,59.6,29.95,WSW,239,0.0,0.0,82,0.00,,BKN250,0.01,0.00,VWS V14.01,2013-06-16 02:30:00,
2013-06-15 22:34:00,65.1,59.5,29.95,WSW,239,0.0,0.0,82,0.00,,SCT250,0.01,0.00,VWS V14.01,2013-06-16 02:34:00,
2013-06-15 22:35:00,65.0,59.4,29.95,WSW,239,0.0,0.0,82,0.00,,BKN250,0.01,0.00,VWS V14.01,2013-06-16 02:35:00,
2013-06-15 22:39:00,64.9,59.3,29.95,WSW,239,0.0,0.0,82,0.00,,SCT250,0.01,0.00,VWS V14.01,2013-06-16 02:39:00,
2013-06-15 22:40:00,64.9,59.3,29.95,WSW,239,0.0,0.0,82,0.00,,BKN250,0.01,0.00,VWS V14.01,2013-06-16 02:40:00,
2013-06-15 22:44:00,64.6,59.3,29.95,WSW,239,0.0,0.0,83,0.00,,SCT250,0.01,0.00,VWS V14.01,2013-06-16 02:44:00,
2013-06-15 22:45:00,64.6,59.3,29.95,WSW,239,1.0,1.0,83,0.00,,BKN250,0.01,0.00,VWS V14.01,2013-06-16 02:45:00,
2013-06-15 22:49:00,64.3,59.4,29.95,WSW,239,2.0,3.0,84,0.00,,SCT250,0.01,0.00,VWS V14.01,2013-06-16 02:49:00,
2013-06-15 22:50:00,64.3,59.4,29.95,WSW,239,1.0,3.0,84,0.00,,BKN250,0.01,0.00,VWS V14.01,2013-06-16 02:50:00,
2013-06-15 22:54:00,64.1,59.2,29.95,WSW,239,0.0,1.0,84,0.00,,SCT250,0.01,0.00,VWS V14.01,2013-06-16 02:54:00,
2013-06-15 22:55:00,64.1,59.2,29.95,WSW,239,0.0,1.0,84,0.00,,BKN250,0.01,0.00,VWS V14.01,2013-06-16 02:55:00,
2013-06-15 22:59:00,64.1,59.2,29.95,WSW,239,0.0,2.0,84,0.00,,SCT250,0.01,0.00,VWS V14.01,2013-06-16 02:59:00,
2013-06-15 23:00:00,64.1,59.2,29.95,WSW,239,0.0,2.0,84,0.00,,BKN250,0.01,0.00,VWS V14.01,2013-06-16 03:00:00,
2013-06-15 23:04:00,64.1,59.5,29.95,WSW,239,0.0,0.0,85,0.00,,SCT250,0.01,0.00,VWS V14.01,2013-06-16 03:04:00,
2013-06-15 23:05:00,64.1,59.5,29.95,WSW,239,0.0,0.0,85,0.00,,BKN250,0.01,0.00,VWS V14.01,2013-06-16 03:05:00,
2013-06-15 23:09:00,64.0,59.4,29.95,WSW,239,0.0,0.0,85,0.00,,SCT250,0.01,0.00,VWS V14.01,2013-06-16 03:09:00,
2013-06-15 23:10:00,64.0,59.4,29.95,WSW,239,0.0,0.0,85,0.00,,BKN250,0.01,0.00,VWS V14.01,2013-06-16 03:10:00,
2013-06-15 23:14:00,63.8,59.2,29.96,WSW,239,0.0,0.0,85,0.00,,SCT250,0.01,0.00,VWS V14.01,2013-06-16 03:14:00,
2013-06-15 23:15:00,63.7,59.1,29.96,WSW,239,0.0,0.0,85,0.00,,BKN250,0.01,0.00,VWS V14.01,2013-06-16 03:15:00,
2013-06-15 23:19:00,63.6,59.0,29.96,WSW,239,0.0,1.0,85,0.00,,SCT250,0.01,0.00,VWS V14.01,2013-06-16 03:19:00,
2013-06-15 23:20:00,63.5,58.9,29.96,WSW,239,0.0,1.0,85,0.00,,BKN250,0.01,0.00,VWS V14.01,2013-06-16 03:20:00,
2013-06-15 23:24:00,63.4,58.8,29.95,WSW,239,1.0,1.0,85,0.00,,SCT250,0.01,0.00,VWS V14.01,2013-06-16 03:24:00,
2013-06-15 23:25:00,63.4,58.8,29.95,WSW,239,0.0,1.0,85,0.00,,BKN250,0.01,0.00,VWS V14.01,2013-06-16 03:25:00,
2013-06-15 23:29:00,63.2,58.6,29.96,WSW,239,0.0,0.0,85,0.00,,SCT250,0.01,0.00,VWS V14.01,2013-06-16 03:29:00,
2013-06-15 23:30:00,63.2,58.6,29.96,WSW,239,0.0,0.0,85,0.00,,BKN250,0.01,0.00,VWS V14.01,2013-06-16 03:30:00,
2013-06-15 23:34:00,63.2,59.0,29.96,WSW,239,0.0,0.0,86,0.00,,SCT250,0.01,0.00,VWS V14.01,2013-06-16 03:34:00,
2013-06-15 23:35:00,63.2,59.0,29.96,WSW,239,0.0,0.0,86,0.00,,BKN250,0.01,0.00,VWS V14.01,2013-06-16 03:35:00,
2013-06-15 23:39:00,63.2,59.0,29.96,WSW,239,0.0,0.0,86,0.00,,SCT250,0.01,0.00,VWS V14.01,2013-06-16 03:39:00,
2013-06-15 23:40:00,63.1,58.8,29.96,WSW,239,0.0,0.0,86,0.00,,BKN250,0.01,0.00,VWS V14.01,2013-06-16 03:40:00,
2013-06-15 23:44:00,63.1,58.8,29.96,WSW,239,0.0,0.0,86,0.00,,SCT250,0.01,0.00,VWS V14.01,2013-06-16 03:44:00,
2013-06-15 23:45:00,63.0,58.8,29.96,WSW,239,0.0,0.0,86,0.00,,BKN250,0.01,0.00,VWS V14.01,2013-06-16 03:45:00,
2013-06-15 23:49:00,63.0,58.8,29.96,WSW,239,0.0,0.0,86,0.00,,SCT250,0.01,0.00,VWS V14.01,2013-06-16 03:49:00,
2013-06-15 23:50:00,62.9,58.7,29.96,WSW,239,0.0,0.0,86,0.00,,BKN250,0.01,0.00,VWS V14.01,2013-06-16 03:50:00,
2013-06-15 23:54:00,62.9,58.7,29.96,WSW,239,0.0,0.0,86,0.00,,SCT250,0.01,0.00,VWS V14.01,2013-06-16 03:54:00,
2013-06-15 23:55:00,62.9,58.7,29.96,WSW,239,0.0,0.0,86,0.00,,BKN250,0.01,0.00,VWS V14.01,2013-06-16 03:55:00,
2013-06-15 23:59:00,62.9,58.7,29.96,WSW,239,0.0,0.0,86,0.00,,SCT250,0.01,0.00,VWS V14.01,2013-06-16 03:59:00,